M I D A S
Marine Information and Data Acquisition System
Tripno 1691 of the Zeeleeuw from 2009-05-08 06:45:49 to 2009-05-08 12:07:22
Back to CruiseResearch ActivitiesStationsMapUnderway DataData graphs

EquipmentUnitsComments
TimeDGPSUTC
LatitudeDGPSDM.mWGS84
LongitudeDGPSDM.mWGS84
SpeedMeteo Stationm/sRelative wind speed
DirectionMeteo StationdegRelative wind direction
TemperatureMeteo Stationdeg CelciusAir temperature
PressureMeteo StationPaAtmospheric pressure
HumidityMeteo Station%Relative humidity
Missing or incorrect values are displayed as -999
Metereological data collected by the RV Zeeleeuw from 2009-05-08 06:36:44 to 2009-05-08 12:47:16
Time Latitude Longitude Speed Direction Temperature Pressure Humidity
2009-05-08 06:37 51°13.664 2°55.958 5.2 28 11.6 101070 87
2009-05-08 06:38 51°13.663 2°55.958 3.8 15 11.6 101080 87
2009-05-08 06:39 51°13.662 2°55.959 4.5 9 11.6 101080 86
2009-05-08 06:40 51°13.663 2°55.958 2.8 23 11.6 101080 86
2009-05-08 06:41 51°13.663 2°55.959 1.9 9 11.6 101080 86
2009-05-08 06:42 51°13.663 2°55.959 4.1 4 11.7 101080 86
2009-05-08 06:43 51°13.663 2°55.959 5.5 12 11.7 101080 86
2009-05-08 06:44 51°13.663 2°55.959 2.9 15 11.7 101080 86
2009-05-08 06:45 51°13.663 2°55.96 4.8 14 11.8 101090 86
2009-05-08 06:46 51°13.662 2°55.96 2.6 32 11.8 101080 86
2009-05-08 06:47 51°13.661 2°55.96 3.3 35 11.8 101070 85
2009-05-08 06:48 51°13.662 2°55.958 2 33 11.7 101080 85
2009-05-08 06:49 51°13.675 2°55.916 4.6 11 11.8 101080 85
2009-05-08 06:50 51°13.69 2°55.845 4.2 76 11.8 101070 86
2009-05-08 06:51 51°13.693 2°55.777 5.1 77 11.9 101070 85
2009-05-08 06:52 51°13.697 2°55.749 3.6 81 11.8 101060 84
2009-05-08 06:53 51°13.73 2°55.746 3.8 281 11.8 101070 84
2009-05-08 06:54 51°13.806 2°55.652 4.2 281 11.8 101070 85
2009-05-08 06:55 51°13.93 2°55.555 3.4 279 11.9 101060 85
2009-05-08 06:56 51°14.069 2°55.456 3.7 282 12 101060 85
2009-05-08 06:57 51°14.21 2°55.347 2 278 12.1 101060 84
2009-05-08 06:58 51°14.324 2°55.181 7.9 286 12.2 101050 84
2009-05-08 06:59 51°14.409 2°54.959 8.8 282 12.1 101050 83
2009-05-08 07:00 51°14.474 2°54.68 12.5 278 12.1 101050 84
2009-05-08 07:01 51°14.405 2°54.392 15.4 282 12 101000 84
2009-05-08 07:02 51°14.264 2°54.163 12.6 280 11.9 101010 84
2009-05-08 07:03 51°14.121 2°53.926 17.5 281 11.9 101010 85
2009-05-08 07:04 51°13.988 2°53.674 16.8 284 11.9 101010 84
2009-05-08 07:05 51°13.855 2°53.42 16.4 281 11.9 101000 85
2009-05-08 07:06 51°13.722 2°53.165 12.6 280 12 101010 85
2009-05-08 07:07 51°13.621 2°52.97 10.9 283 12 101010 85
2009-05-08 07:08 51°13.553 2°52.85 10.7 286 12 101020 86
2009-05-08 07:09 51°13.499 2°52.75 10.1 277 12 101020 85
2009-05-08 07:10 51°13.456 2°52.674 10.8 280 12.1 101030 86
2009-05-08 07:11 51°13.425 2°52.616 10.6 283 12.1 101030 86
2009-05-08 07:12 51°13.396 2°52.557 10 283 12.1 101030 85
2009-05-08 07:13 51°13.358 2°52.479 13.5 281 12.1 101040 85
2009-05-08 07:14 51°13.314 2°52.383 12.4 285 12.1 101030 84
2009-05-08 07:15 51°13.273 2°52.277 9.5 278 12.2 101050 86
2009-05-08 07:16 51°13.232 2°52.17 12 283 12.2 101040 85
2009-05-08 07:17 51°13.188 2°52.068 12.6 282 12.2 101050 85
2009-05-08 07:18 51°13.141 2°51.968 10.1 282 12.2 101060 85
2009-05-08 07:19 51°13.094 2°51.864 9.5 285 12.3 101060 84
2009-05-08 07:20 51°13.047 2°51.761 11.1 284 12.3 101060 84
2009-05-08 07:21 51°12.999 2°51.658 10.1 281 12.4 101060 84
2009-05-08 07:22 51°12.952 2°51.556 13 283 12.4 101060 83
2009-05-08 07:23 51°12.905 2°51.455 9.4 281 12.5 101070 82
2009-05-08 07:24 51°12.86 2°51.354 11.5 282 12.5 101060 80
2009-05-08 07:25 51°12.823 2°51.247 10.6 281 12.6 101060 79
2009-05-08 07:26 51°12.788 2°51.137 11.6 285 12.6 101060 77
2009-05-08 07:27 51°12.754 2°51.026 14.8 278 12.7 101070 78
2009-05-08 07:28 51°12.72 2°50.916 13.7 277 12.7 101050 75
2009-05-08 07:29 51°12.684 2°50.806 14.1 281 12.7 101060 76
2009-05-08 07:30 51°12.648 2°50.698 14.2 278 12.7 101050 72
2009-05-08 07:31 51°12.612 2°50.59 11.9 280 12.8 101060 73
2009-05-08 07:32 51°12.577 2°50.483 11.7 281 12.8 101040 71
2009-05-08 07:33 51°12.54 2°50.376 11.3 285 12.8 101050 72
2009-05-08 07:34 51°12.504 2°50.267 12.3 282 12.8 101040 71
2009-05-08 07:35 51°12.469 2°50.16 13.7 281 12.9 101050 73
2009-05-08 07:36 51°12.427 2°50.06 12.1 285 12.9 101060 72
2009-05-08 07:37 51°12.384 2°49.962 12.9 280 12.8 101060 74
2009-05-08 07:38 51°12.343 2°49.864 11.9 281 12.8 101060 72
2009-05-08 07:39 51°12.308 2°49.776 11.2 280 12.8 101050 73
2009-05-08 07:40 51°12.283 2°49.718 10 285 12.8 101060 73
2009-05-08 07:41 51°12.265 2°49.679 9.6 284 12.8 101070 71
2009-05-08 07:42 51°12.251 2°49.652 8.6 280 12.9 101080 72
2009-05-08 07:43 51°12.239 2°49.635 7.6 284 12.9 101070 71
2009-05-08 07:44 51°12.21 2°49.589 9.5 284 13 101070 74
2009-05-08 07:45 51°12.174 2°49.494 10.2 283 13 101070 75
2009-05-08 07:46 51°12.132 2°49.389 10.9 279 12.9 101050 71
2009-05-08 07:47 51°12.086 2°49.292 12 286 12.9 101060 69
2009-05-08 07:48 51°12.043 2°49.196 11 284 13 101070 71
2009-05-08 07:49 51°11.998 2°49.103 10.8 285 13 101070 69
2009-05-08 07:50 51°11.954 2°49.005 10.5 285 13 101070 72
2009-05-08 07:51 51°11.913 2°48.905 10.6 279 13 101060 69
2009-05-08 07:52 51°11.869 2°48.81 10.5 281 13 101070 69
2009-05-08 07:53 51°11.827 2°48.713 13.2 281 12.9 101060 68
2009-05-08 07:54 51°11.787 2°48.613 9.5 281 13 101060 69
2009-05-08 07:55 51°11.747 2°48.513 10.4 335 13 101060 71
2009-05-08 07:56 51°11.706 2°48.416 10.7 278 13 101070 70
2009-05-08 07:57 51°11.666 2°48.319 9.9 285 13 101070 70
2009-05-08 07:58 51°11.625 2°48.221 10.2 284 13 101070 70
2009-05-08 07:59 51°11.584 2°48.119 11.9 282 13.1 101070 68
2009-05-08 08:00 51°11.537 2°48.022 10.6 280 13.1 101070 67
2009-05-08 08:01 51°11.494 2°47.918 10.3 284 13.1 101080 68
2009-05-08 08:02 51°11.452 2°47.813 11.9 285 13 101060 67
2009-05-08 08:03 51°11.411 2°47.71 12.3 282 13.1 101060 66
2009-05-08 08:04 51°11.371 2°47.607 13.2 280 13.2 101060 66
2009-05-08 08:05 51°11.329 2°47.506 11.8 333 13.2 101070 67
2009-05-08 08:06 51°11.288 2°47.404 11.8 281 13.2 101070 66
2009-05-08 08:07 51°11.247 2°47.301 10.7 279 13.2 101070 67
2009-05-08 08:08 51°11.207 2°47.198 10.4 278 13.2 101070 66
2009-05-08 08:09 51°11.178 2°47.088 8.8 278 13.3 101060 68
2009-05-08 08:10 51°11.164 2°46.971 11.4 278 13.3 101060 69
2009-05-08 08:11 51°11.175 2°46.858 11.9 303 13.3 101060 68
2009-05-08 08:12 51°11.191 2°46.749 10.4 285 13.3 101060 69
2009-05-08 08:13 51°11.199 2°46.676 13.1 309 13.2 101060 68
2009-05-08 08:14 51°11.207 2°46.632 9.3 280 13.2 101060 64
2009-05-08 08:15 51°11.238 2°46.559 9.3 304 13.2 101070 65
2009-05-08 08:16 51°11.311 2°46.482 11.9 -999 13.3 101080 68
2009-05-08 08:17 51°11.393 2°46.443 10.7 281 13.3 101060 68
2009-05-08 08:18 51°11.468 2°46.451 6.8 285 13.3 101080 68
2009-05-08 08:19 51°11.54 2°46.468 6.6 279 13.2 101070 70
2009-05-08 08:20 51°11.611 2°46.484 7.8 75 13.2 101080 70
2009-05-08 08:21 51°11.661 2°46.556 5 80 13.2 101080 71
2009-05-08 08:22 51°11.666 2°46.662 7.4 44 13.1 101090 70
2009-05-08 08:23 51°11.661 2°46.777 6.3 -999 13.1 101090 69
2009-05-08 08:24 51°11.658 2°46.894 6 40 13.1 101100 69
2009-05-08 08:25 51°11.654 2°47.006 8.5 -999 13.1 101090 70
2009-05-08 08:26 51°11.65 2°47.116 7.1 44 13.2 101100 71
2009-05-08 08:27 51°11.647 2°47.225 8.1 39 13.2 101090 72
2009-05-08 08:28 51°11.643 2°47.335 9 44 13.2 101100 70
2009-05-08 08:29 51°11.641 2°47.447 7.5 44 13.1 101100 67
2009-05-08 08:30 51°11.639 2°47.561 7.7 42 13.2 101090 68
2009-05-08 08:31 51°11.637 2°47.676 8.5 -999 13.2 101100 68
2009-05-08 08:32 51°11.635 2°47.791 6.1 41 13.1 101100 68
2009-05-08 08:33 51°11.634 2°47.905 5.5 39 13.2 101090 70
2009-05-08 08:34 51°11.636 2°48.018 4.9 56 13.2 101090 70
2009-05-08 08:35 51°11.651 2°48.127 4.1 -999 13.2 101090 73
2009-05-08 08:36 51°11.671 2°48.234 7.1 44 13.3 101080 73
2009-05-08 08:37 51°11.69 2°48.342 7.8 74 13.2 101090 69
2009-05-08 08:38 51°11.709 2°48.451 7.2 40 13.3 101090 67
2009-05-08 08:39 51°11.728 2°48.559 7.6 36 13.3 101090 68
2009-05-08 08:40 51°11.752 2°48.665 10.9 79 13.4 101080 68
2009-05-08 08:41 51°11.778 2°48.769 9.3 -999 13.4 101100 66
2009-05-08 08:42 51°11.808 2°48.868 8.1 59 13.4 101090 66
2009-05-08 08:43 51°11.84 2°48.964 9.2 81 13.4 101090 66
2009-05-08 08:44 51°11.877 2°49.054 8.2 56 13.4 101090 64
2009-05-08 08:45 51°11.913 2°49.145 4.7 81 13.4 101080 64
2009-05-08 08:46 51°11.949 2°49.235 6.7 82 13.7 101090 66
2009-05-08 08:47 51°11.991 2°49.323 6.1 -999 13.7 101080 62
2009-05-08 08:48 51°12.033 2°49.41 5 56 13.6 101080 64
2009-05-08 08:49 51°12.075 2°49.501 7.5 74 13.8 101080 65
2009-05-08 08:50 51°12.116 2°49.592 4.8 80 13.8 101090 64
2009-05-08 08:51 51°12.15 2°49.672 6.2 -999 14 101090 63
2009-05-08 08:52 51°12.179 2°49.742 6.4 81 14.3 101080 64
2009-05-08 08:53 51°12.205 2°49.806 12.5 -999 14.1 101080 61
2009-05-08 08:54 51°12.225 2°49.865 12.6 83 13.8 101090 63
2009-05-08 08:55 51°12.239 2°49.918 13.6 -999 13.7 101100 64
2009-05-08 08:56 51°12.256 2°49.962 7.9 78 13.6 101100 64
2009-05-08 08:57 51°12.278 2°49.989 11.9 -999 13.6 101080 64
2009-05-08 08:58 51°12.3 2°50.001 10.5 74 13.6 101060 65
2009-05-08 08:59 51°12.357 2°49.988 7 279 13.6 101070 67
2009-05-08 09:00 51°12.433 2°49.985 10.3 -999 13.5 101070 66
2009-05-08 09:01 51°12.491 2°50.063 5.3 -999 13.5 101080 66
2009-05-08 09:02 51°12.529 2°50.163 9 41 13.7 101090 64
2009-05-08 09:03 51°12.549 2°50.273 9.9 -999 13.6 101060 64
2009-05-08 09:04 51°12.559 2°50.387 9.2 39 13.6 101050 64
2009-05-08 09:05 51°12.564 2°50.499 7.7 -999 13.5 101060 62
2009-05-08 09:06 51°12.579 2°50.602 8.6 80 13.6 101070 66
2009-05-08 09:07 51°12.609 2°50.699 6.7 -999 13.5 101080 64
2009-05-08 09:08 51°12.645 2°50.791 8.4 81 13.5 101080 66
2009-05-08 09:09 51°12.678 2°50.889 10.6 -999 13.5 101080 64
2009-05-08 09:10 51°12.705 2°50.994 9.1 79 13.5 101080 60
2009-05-08 09:11 51°12.731 2°51.102 12.2 -999 13.5 101090 63
2009-05-08 09:12 51°12.76 2°51.205 10.8 77 13.6 101060 63
2009-05-08 09:13 51°12.802 2°51.296 11.3 -999 13.5 101070 61
2009-05-08 09:14 51°12.844 2°51.391 10.1 80 13.5 101060 62
2009-05-08 09:15 51°12.884 2°51.489 6.8 80 13.5 101080 62
2009-05-08 09:16 51°12.924 2°51.585 6.1 75 13.6 101080 67
2009-05-08 09:17 51°12.962 2°51.683 5.6 -999 13.6 101080 66
2009-05-08 09:18 51°13 2°51.78 7.7 79 13.5 101080 65
2009-05-08 09:19 51°13.039 2°51.878 5.3 -999 13.5 101080 63
2009-05-08 09:20 51°13.077 2°51.979 6 82 13.6 101070 64
2009-05-08 09:21 51°13.122 2°52.071 8.8 -999 13.6 101080 65
2009-05-08 09:22 51°13.173 2°52.158 6.9 80 13.6 101080 64
2009-05-08 09:23 51°13.223 2°52.246 6.7 -999 13.6 101080 65
2009-05-08 09:24 51°13.273 2°52.335 6.5 83 13.5 101080 63
2009-05-08 09:25 51°13.323 2°52.426 6.4 -999 13.7 101080 65
2009-05-08 09:26 51°13.374 2°52.513 6.8 81 14 101090 62
2009-05-08 09:27 51°13.434 2°52.579 8.1 -999 13.9 101080 64
2009-05-08 09:28 51°13.494 2°52.646 5 80 13.7 101080 63
2009-05-08 09:29 51°13.538 2°52.735 9.7 77 13.9 101090 65
2009-05-08 09:30 51°13.562 2°52.817 6.9 81 13.8 101080 66
2009-05-08 09:31 51°13.581 2°52.889 11.5 77 13.7 101080 67
2009-05-08 09:32 51°13.606 2°52.946 7.1 80 13.6 101080 65
2009-05-08 09:33 51°13.637 2°52.991 10.2 77 13.7 101070 65
2009-05-08 09:34 51°13.69 2°53.041 11.7 75 13.6 101070 64
2009-05-08 09:35 51°13.777 2°53.099 9.9 81 13.7 101080 67
2009-05-08 09:36 51°13.824 2°53.178 6.5 82 13.6 101070 67
2009-05-08 09:37 51°13.859 2°53.255 6.8 77 13.6 101090 64
2009-05-08 09:38 51°13.886 2°53.33 7.8 82 13.6 101080 67
2009-05-08 09:39 51°13.91 2°53.4 5.2 81 13.6 101080 67
2009-05-08 09:40 51°13.95 2°53.467 7.6 75 13.6 101080 69
2009-05-08 09:41 51°14.013 2°53.539 9.3 79 13.6 101070 64
2009-05-08 09:42 51°14.1 2°53.596 9.3 -999 13.6 101060 66
2009-05-08 09:43 51°14.172 2°53.62 11 -999 13.6 101060 65
2009-05-08 09:44 51°14.223 2°53.634 8 278 13.6 101050 66
2009-05-08 09:45 51°14.275 2°53.655 11 -999 13.7 101050 66
2009-05-08 09:46 51°14.406 2°53.753 6.8 81 13.7 101070 63
2009-05-08 09:47 51°14.555 2°53.946 4.5 76 13.7 101070 64
2009-05-08 09:48 51°14.697 2°54.188 4.6 -999 13.9 101070 66
2009-05-08 09:49 51°14.825 2°54.453 5.5 -999 14.2 101070 62
2009-05-08 09:50 51°14.937 2°54.737 4.3 76 14.2 101070 62
2009-05-08 09:51 51°15.036 2°55.035 5 -999 14.2 101080 65
2009-05-08 09:52 51°15.133 2°55.334 3.3 76 14 101080 65
2009-05-08 09:53 51°15.232 2°55.636 3.8 -999 13.9 101080 67
2009-05-08 09:54 51°15.324 2°55.908 7 45 13.8 101080 67
2009-05-08 09:55 51°15.376 2°56.073 8.6 -999 13.8 101070 67
2009-05-08 09:56 51°15.409 2°56.192 8.7 40 13.8 101070 67
2009-05-08 09:57 51°15.449 2°56.312 7.9 81 13.8 101070 65
2009-05-08 09:58 51°15.501 2°56.427 10.5 43 13.8 101070 65
2009-05-08 09:59 51°15.544 2°56.544 10.4 42 13.8 101070 64
2009-05-08 10:00 51°15.583 2°56.659 8.8 76 13.8 101070 64
2009-05-08 10:01 51°15.622 2°56.772 8.8 -999 13.9 101080 66
2009-05-08 10:02 51°15.661 2°56.884 9.3 79 13.9 101070 64
2009-05-08 10:03 51°15.699 2°56.995 7.6 -999 13.9 101070 65
2009-05-08 10:04 51°15.738 2°57.106 8.1 74 14 101070 67
2009-05-08 10:05 51°15.777 2°57.217 7.5 79 13.9 101070 67
2009-05-08 10:06 51°15.816 2°57.328 7.3 79 13.9 101070 66
2009-05-08 10:07 51°15.856 2°57.436 9.9 43 13.9 101080 66
2009-05-08 10:08 51°15.894 2°57.543 8.4 45 13.9 101070 64
2009-05-08 10:09 51°15.933 2°57.649 9.6 80 13.9 101070 64
2009-05-08 10:10 51°15.97 2°57.754 9.3 81 13.9 101070 64
2009-05-08 10:11 51°16.009 2°57.859 8.1 80 13.9 101070 64
2009-05-08 10:12 51°16.049 2°57.965 9.9 80 13.9 101070 62
2009-05-08 10:13 51°16.09 2°58.073 8 75 14 101070 64
2009-05-08 10:14 51°16.13 2°58.179 8.7 79 14 101060 65
2009-05-08 10:15 51°16.169 2°58.285 9 39 14 101060 66
2009-05-08 10:16 51°16.209 2°58.392 10.2 41 14 101070 62
2009-05-08 10:17 51°16.249 2°58.501 9.8 -999 14 101070 64
2009-05-08 10:18 51°16.291 2°58.611 9.6 83 14 101070 62
2009-05-08 10:19 51°16.335 2°58.722 11.4 -999 14 101070 60
2009-05-08 10:20 51°16.378 2°58.836 9.9 77 14 101070 63
2009-05-08 10:21 51°16.422 2°58.95 11.1 81 14 101070 63
2009-05-08 10:22 51°16.464 2°59.067 12.1 44 14 101070 62
2009-05-08 10:23 51°16.504 2°59.182 10.7 82 13.9 101080 60
2009-05-08 10:24 51°16.538 2°59.29 11.3 43 14 101070 61
2009-05-08 10:25 51°16.569 2°59.395 11.2 40 14 101070 63
2009-05-08 10:26 51°16.598 2°59.496 13.8 39 14 101040 60
2009-05-08 10:27 51°16.633 2°59.62 12.7 41 14.1 101060 59
2009-05-08 10:28 51°16.67 2°59.775 10.4 38 14.1 101040 61
2009-05-08 10:29 51°16.705 2°59.92 8.7 -999 14.2 101050 64
2009-05-08 10:30 51°16.743 3°0.05 7.4 80 14.1 101050 62
2009-05-08 10:31 51°16.79 3°0.168 9.2 74 14.2 101060 63
2009-05-08 10:32 51°16.842 3°0.271 7.1 79 14.1 101060 63
2009-05-08 10:33 51°16.891 3°0.376 5.7 75 13.9 101060 66
2009-05-08 10:34 51°16.936 3°0.487 7.9 75 14 101060 66
2009-05-08 10:35 51°16.978 3°0.597 7.7 79 14 101060 65
2009-05-08 10:36 51°17.02 3°0.704 6.8 80 13.9 101070 65
2009-05-08 10:37 51°17.061 3°0.811 7.7 75 13.9 101060 64
2009-05-08 10:38 51°17.104 3°0.917 5 74 14.1 101070 64
2009-05-08 10:39 51°17.147 3°1.022 7.2 -999 14.1 101070 61
2009-05-08 10:40 51°17.19 3°1.128 8.7 78 14.2 101070 61
2009-05-08 10:41 51°17.235 3°1.236 10.7 78 14.1 101080 61
2009-05-08 10:42 51°17.283 3°1.343 10.1 73 14 101070 62
2009-05-08 10:43 51°17.331 3°1.449 11.3 -999 13.9 101070 60
2009-05-08 10:44 51°17.38 3°1.558 6.7 81 13.9 101070 59
2009-05-08 10:45 51°17.426 3°1.668 8.6 -999 14 101070 61
2009-05-08 10:46 51°17.472 3°1.779 8.5 79 14.1 101070 59
2009-05-08 10:47 51°17.517 3°1.89 7.7 -999 14.1 101060 60
2009-05-08 10:48 51°17.563 3°2.001 8.8 -999 14.1 101070 59
2009-05-08 10:49 51°17.61 3°2.112 8.1 79 14.1 101070 60
2009-05-08 10:50 51°17.658 3°2.221 10.9 80 14.1 101070 58
2009-05-08 10:51 51°17.705 3°2.331 7 76 14 101070 58
2009-05-08 10:52 51°17.751 3°2.442 9.7 80 14.2 101070 61
2009-05-08 10:53 51°17.797 3°2.552 8.5 81 14 101070 62
2009-05-08 10:54 51°17.842 3°2.66 8 -999 13.9 101070 61
2009-05-08 10:55 51°17.887 3°2.768 9 77 13.8 101080 63
2009-05-08 10:56 51°17.93 3°2.874 7.6 81 13.8 101080 65
2009-05-08 10:57 51°17.971 3°2.981 9.2 75 13.7 101070 66
2009-05-08 10:58 51°18.014 3°3.086 7.7 78 13.6 101080 64
2009-05-08 10:59 51°18.061 3°3.195 9.5 79 13.7 101080 64
2009-05-08 11:00 51°18.108 3°3.304 12.2 75 13.6 101070 66
2009-05-08 11:01 51°18.154 3°3.414 11 77 13.6 101070 66
2009-05-08 11:02 51°18.201 3°3.523 13.8 79 13.5 101070 66
2009-05-08 11:03 51°18.248 3°3.632 10.5 84 13.5 101070 66
2009-05-08 11:04 51°18.291 3°3.751 6.1 75 13.4 101070 67
2009-05-08 11:05 51°18.325 3°3.889 8.9 78 13.4 101090 67
2009-05-08 11:06 51°18.361 3°4.025 6 -999 13.5 101080 69
2009-05-08 11:07 51°18.403 3°4.153 9.7 81 13.5 101080 66
2009-05-08 11:08 51°18.45 3°4.274 9.8 82 13.5 101070 70
2009-05-08 11:09 51°18.503 3°4.38 12 73 13.4 101060 68
2009-05-08 11:10 51°18.557 3°4.471 8.8 285 13.4 101060 69
2009-05-08 11:11 51°18.614 3°4.539 10.6 283 13.4 101070 71
2009-05-08 11:12 51°18.666 3°4.569 8.9 -999 13.4 101050 69
2009-05-08 11:13 51°18.677 3°4.571 12.5 282 13.5 101070 72
2009-05-08 11:14 51°18.646 3°4.569 14.3 282 13.4 101050 72
2009-05-08 11:15 51°18.618 3°4.53 14.4 282 13.4 101070 73
2009-05-08 11:16 51°18.578 3°4.488 15.5 278 13.4 101050 70
2009-05-08 11:17 51°18.541 3°4.445 14.6 280 13.4 101040 70
2009-05-08 11:18 51°18.509 3°4.396 14.1 -999 13.4 101050 68
2009-05-08 11:19 51°18.48 3°4.347 13.2 285 13.5 101060 69
2009-05-08 11:20 51°18.442 3°4.304 14.6 283 13.5 101070 71
2009-05-08 11:21 51°18.399 3°4.266 14.8 283 13.5 101040 68
2009-05-08 11:22 51°18.365 3°4.216 15.2 282 13.5 101070 67
2009-05-08 11:23 51°18.332 3°4.162 14.8 283 13.6 101050 66
2009-05-08 11:24 51°18.3 3°4.108 15.5 284 13.6 101060 67
2009-05-08 11:25 51°18.268 3°4.055 14.9 279 13.6 101070 66
2009-05-08 11:26 51°18.236 3°3.996 17.3 279 13.7 101070 68
2009-05-08 11:27 51°18.209 3°3.93 16.1 284 13.6 101080 67
2009-05-08 11:28 51°18.182 3°3.862 12.8 282 13.7 101090 68
2009-05-08 11:29 51°18.156 3°3.786 14 282 13.7 101080 70
2009-05-08 11:30 51°18.132 3°3.708 13 278 13.7 101090 66
2009-05-08 11:31 51°18.107 3°3.636 14.8 285 13.8 101060 60
2009-05-08 11:32 51°18.082 3°3.563 13.3 281 14 101070 64
2009-05-08 11:33 51°18.052 3°3.487 14 280 14 101080 67
2009-05-08 11:34 51°18.022 3°3.41 16.8 280 13.9 101070 65
2009-05-08 11:35 51°17.993 3°3.332 13.3 280 13.9 101070 66
2009-05-08 11:36 51°17.962 3°3.252 14.8 -999 13.9 101080 69
2009-05-08 11:37 51°17.934 3°3.171 11.9 279 13.8 101070 67
2009-05-08 11:38 51°17.904 3°3.09 18.2 283 13.8 101070 64
2009-05-08 11:39 51°17.875 3°3.01 15.4 282 14.1 101070 62
2009-05-08 11:40 51°17.846 3°2.931 14.3 283 14 101070 62
2009-05-08 11:41 51°17.821 3°2.855 13.9 282 14 101080 61
2009-05-08 11:42 51°17.797 3°2.784 19.1 282 14.1 101070 61
2009-05-08 11:43 51°17.772 3°2.712 15 280 14.1 101070 58
2009-05-08 11:44 51°17.745 3°2.633 14.8 283 14.2 101080 61
2009-05-08 11:45 51°17.712 3°2.557 12.5 282 14 101090 61
2009-05-08 11:46 51°17.678 3°2.482 15.5 285 13.9 101060 63
2009-05-08 11:47 51°17.646 3°2.409 18.1 284 13.9 101040 62
2009-05-08 11:48 51°17.616 3°2.332 13.7 279 14 101050 59
2009-05-08 11:49 51°17.583 3°2.259 13.2 284 14.1 101060 62
2009-05-08 11:50 51°17.548 3°2.193 13.2 282 14.2 101060 62
2009-05-08 11:51 51°17.51 3°2.125 15.8 332 14.2 101070 60
2009-05-08 11:52 51°17.474 3°2.057 18.4 281 14.2 101070 60
2009-05-08 11:53 51°17.439 3°1.989 14.2 334 14.2 101070 61
2009-05-08 11:54 51°17.404 3°1.917 13.2 278 14.1 101070 64
2009-05-08 11:55 51°17.385 3°1.875 11.2 332 14 101090 67
2009-05-08 11:56 51°17.375 3°1.855 15.1 282 13.9 101090 67
2009-05-08 11:57 51°17.351 3°1.829 13.1 342 13.8 101080 67
2009-05-08 11:58 51°17.32 3°1.807 16.3 346 13.7 101090 70
2009-05-08 11:59 51°17.311 3°1.828 15.9 341 13.5 101090 66
2009-05-08 12:00 51°17.31 3°1.852 15.1 283 13.5 101110 69
2009-05-08 12:01 51°17.286 3°1.763 24.1 333 13.5 101090 67
2009-05-08 12:02 51°17.233 3°1.589 24.3 282 13.3 101070 72
2009-05-08 12:03 51°17.178 3°1.362 25.4 331 12.6 101100 80
2009-05-08 12:04 51°17.163 3°1.114 21.7 284 11.9 101130 88
2009-05-08 12:05 51°17.123 3°0.874 20.4 334 11.4 101100 92
2009-05-08 12:06 51°17.081 3°0.628 19.2 282 11.2 101150 95
2009-05-08 12:07 51°17.042 3°0.39 22.4 331 11.1 101140 96
2009-05-08 12:08 51°16.998 3°0.148 23.5 283 11.1 101150 97
2009-05-08 12:09 51°16.963 2°59.907 23.3 326 11.1 101150 97
2009-05-08 12:10 51°16.925 2°59.668 25.9 280 11.1 101150 96
2009-05-08 12:11 51°16.89 2°59.423 26 334 10.8 101170 90
2009-05-08 12:12 51°16.852 2°59.178 23.7 281 10.6 101160 86
2009-05-08 12:13 51°16.807 2°58.94 23.9 333 10.7 101150 86
2009-05-08 12:14 51°16.741 2°58.711 20.9 282 10.7 101160 85
2009-05-08 12:15 51°16.667 2°58.479 22.4 331 10.8 101170 84
2009-05-08 12:16 51°16.602 2°58.253 23.1 282 10.8 101180 83
2009-05-08 12:17 51°16.533 2°58.025 19.2 330 10.8 101200 81
2009-05-08 12:18 51°16.454 2°57.801 19.9 280 11 101210 83
2009-05-08 12:19 51°16.369 2°57.582 23.7 334 11 101210 81
2009-05-08 12:20 51°16.283 2°57.362 18.7 283 11 101190 79
2009-05-08 12:21 51°16.199 2°57.142 19.7 333 11.1 101200 77
2009-05-08 12:22 51°16.113 2°56.925 21.7 281 11.1 101210 75
2009-05-08 12:23 51°16.039 2°56.703 23 333 11.2 101200 75
2009-05-08 12:24 51°15.968 2°56.469 24 279 11.2 101190 74
2009-05-08 12:25 51°15.899 2°56.238 23.8 336 11.3 101210 75
2009-05-08 12:26 51°15.815 2°56.019 21.6 280 11.3 101200 72
2009-05-08 12:27 51°15.716 2°55.818 23.7 337 11.4 101190 75
2009-05-08 12:28 51°15.618 2°55.622 24 283 11.4 101190 73
2009-05-08 12:29 51°15.524 2°55.426 24.4 337 11.5 101190 72
2009-05-08 12:30 51°15.428 2°55.229 23.7 282 11.5 101190 71
2009-05-08 12:31 51°15.315 2°55.057 20.7 283 11.6 101200 74
2009-05-08 12:32 51°15.182 2°54.931 21.7 282 11.5 101160 72
2009-05-08 12:33 51°15.042 2°54.836 23.7 350 11.5 101210 77
2009-05-08 12:34 51°14.884 2°54.785 23 351 11.4 101130 73
2009-05-08 12:35 51°14.718 2°54.745 17.3 353 11.5 101200 76
2009-05-08 12:36 51°14.551 2°54.792 15.9 7 11.5 101160 75
2009-05-08 12:37 51°14.402 2°54.983 16 22 11.5 101210 73
2009-05-08 12:38 51°14.283 2°55.214 13.9 27 11.5 101250 72
2009-05-08 12:39 51°14.181 2°55.375 17.1 20 11.6 101270 77
2009-05-08 12:40 51°14.084 2°55.474 4.4 286 11.4 101290 72
2009-05-08 12:41 51°13.977 2°55.55 10.1 9 11.5 101280 71
2009-05-08 12:42 51°13.876 2°55.601 10.1 2 11.4 101280 68
2009-05-08 12:43 51°13.784 2°55.667 7.1 10 11.5 101300 68
2009-05-08 12:44 51°13.722 2°55.767 3.6 13 11.5 101310 67
2009-05-08 12:45 51°13.68 2°55.872 3.1 39 11.6 101310 68
2009-05-08 12:46 51°13.664 2°55.947 11.4 44 11.6 101310 68